Year,Month,Day,Hour,Minute,Value (Times are PST for temperature in C)
2020,04,26,00,00,9.60
2020,04,26,00,01,9.40
2020,04,26,00,02,9.30
2020,04,26,00,03,9.20
2020,04,26,00,04,9.10
2020,04,26,00,05,9.00
2020,04,26,00,06,8.90
2020,04,26,00,07,8.90
2020,04,26,00,08,8.90
2020,04,26,00,09,8.90
2020,04,26,00,10,8.90
2020,04,26,00,11,8.90
2020,04,26,00,12,8.90
2020,04,26,00,13,8.90
2020,04,26,00,14,8.90
2020,04,26,00,15,8.80
2020,04,26,00,16,8.80
2020,04,26,00,17,8.80
2020,04,26,00,18,8.70
2020,04,26,00,19,8.70
2020,04,26,00,20,8.60
2020,04,26,00,21,8.60
2020,04,26,00,22,8.50
2020,04,26,00,23,8.40
2020,04,26,00,24,8.40
2020,04,26,00,25,8.30
2020,04,26,00,26,8.30
2020,04,26,00,27,8.20
2020,04,26,00,28,8.20
2020,04,26,00,29,8.10
2020,04,26,00,30,8.00
2020,04,26,00,31,7.90
2020,04,26,00,32,7.90
2020,04,26,00,33,7.80
2020,04,26,00,34,7.80
2020,04,26,00,35,7.80
2020,04,26,00,36,7.80
2020,04,26,00,37,7.70
2020,04,26,00,38,7.70
2020,04,26,00,39,7.70
2020,04,26,00,40,7.60
2020,04,26,00,41,7.60
2020,04,26,00,42,7.60
2020,04,26,00,43,7.80
2020,04,26,00,44,7.90
2020,04,26,00,45,7.90
2020,04,26,00,46,7.90
2020,04,26,00,47,8.00
2020,04,26,00,48,8.10
2020,04,26,00,49,8.10
2020,04,26,00,50,8.20
2020,04,26,00,51,8.30
2020,04,26,00,52,8.30
2020,04,26,00,53,8.30
2020,04,26,00,54,8.30
2020,04,26,00,55,8.20
2020,04,26,00,56,8.20
2020,04,26,00,57,8.10
2020,04,26,00,58,8.00
2020,04,26,00,59,7.90
2020,04,26,01,00,7.90
2020,04,26,01,01,7.90
2020,04,26,01,02,7.80
2020,04,26,01,03,7.80
2020,04,26,01,04,7.70
2020,04,26,01,05,7.70
2020,04,26,01,06,7.80
2020,04,26,01,07,7.90
2020,04,26,01,08,8.00
2020,04,26,01,09,8.10
2020,04,26,01,10,8.10
2020,04,26,01,11,8.10
2020,04,26,01,12,8.00
2020,04,26,01,13,8.10
2020,04,26,01,14,8.10
2020,04,26,01,15,8.20
2020,04,26,01,16,8.20
2020,04,26,01,17,8.30
2020,04,26,01,18,8.40
2020,04,26,01,19,8.50
2020,04,26,01,20,8.50
2020,04,26,01,21,8.60
2020,04,26,01,22,8.60
2020,04,26,01,23,8.70
2020,04,26,01,24,8.70
2020,04,26,01,25,8.80
2020,04,26,01,26,8.80
2020,04,26,01,27,8.80
2020,04,26,01,28,8.90
2020,04,26,01,29,8.90
2020,04,26,01,30,8.90
2020,04,26,01,31,8.90
2020,04,26,01,32,8.90
2020,04,26,01,33,9.00
2020,04,26,01,34,9.00
2020,04,26,01,35,9.00
2020,04,26,01,36,9.00
2020,04,26,01,37,8.90
2020,04,26,01,38,8.80
2020,04,26,01,39,8.70
2020,04,26,01,40,8.60
2020,04,26,01,41,8.50
2020,04,26,01,42,8.40
2020,04,26,01,43,8.30
2020,04,26,01,44,8.30
2020,04,26,01,45,8.30
2020,04,26,01,46,8.30
2020,04,26,01,47,8.30
2020,04,26,01,48,8.30
2020,04,26,01,49,8.40
2020,04,26,01,50,8.40
2020,04,26,01,51,8.40
2020,04,26,01,52,8.40
2020,04,26,01,53,8.40
2020,04,26,01,54,8.40
2020,04,26,01,55,8.50
2020,04,26,01,56,8.50
2020,04,26,01,57,8.50
2020,04,26,01,58,8.50
2020,04,26,01,59,8.50
2020,04,26,02,00,8.40
2020,04,26,02,01,8.40
2020,04,26,02,02,8.40
2020,04,26,02,03,8.40
2020,04,26,02,04,8.30
2020,04,26,02,05,8.30
2020,04,26,02,06,8.20
2020,04,26,02,07,8.20
2020,04,26,02,08,8.10
2020,04,26,02,09,7.90
2020,04,26,02,10,7.80
2020,04,26,02,11,7.80
2020,04,26,02,12,7.70
2020,04,26,02,13,7.60
2020,04,26,02,14,7.50
2020,04,26,02,15,7.40
2020,04,26,02,16,7.30
2020,04,26,02,17,7.20
2020,04,26,02,18,7.20
2020,04,26,02,19,7.10
2020,04,26,02,20,7.00
2020,04,26,02,21,6.90
2020,04,26,02,22,6.80
2020,04,26,02,23,6.70
2020,04,26,02,24,6.70
2020,04,26,02,25,6.60
2020,04,26,02,26,6.60
2020,04,26,02,27,6.50
2020,04,26,02,28,6.40
2020,04,26,02,29,6.40
2020,04,26,02,30,6.30
2020,04,26,02,31,6.30
2020,04,26,02,32,6.30
2020,04,26,02,33,6.30
2020,04,26,02,34,6.30
2020,04,26,02,35,6.30
2020,04,26,02,36,6.30
2020,04,26,02,37,6.30
2020,04,26,02,38,6.30
2020,04,26,02,39,6.30
2020,04,26,02,40,6.20
2020,04,26,02,41,6.20
2020,04,26,02,42,6.20
2020,04,26,02,43,6.20
2020,04,26,02,44,6.20
2020,04,26,02,45,6.20
2020,04,26,02,46,6.20
2020,04,26,02,47,6.20
2020,04,26,02,48,6.20
2020,04,26,02,49,6.20
2020,04,26,02,50,6.20
2020,04,26,02,51,6.10
2020,04,26,02,52,6.10
2020,04,26,02,53,6.10
2020,04,26,02,54,6.00
2020,04,26,02,55,6.00
2020,04,26,02,56,6.00
2020,04,26,02,57,5.90
2020,04,26,02,58,5.90
2020,04,26,02,59,5.90
2020,04,26,03,00,5.90
2020,04,26,03,01,5.90
2020,04,26,03,02,5.90
2020,04,26,03,03,5.90
2020,04,26,03,04,5.80
2020,04,26,03,05,5.80
2020,04,26,03,06,5.80
2020,04,26,03,07,5.80
2020,04,26,03,08,5.90
2020,04,26,03,09,5.90
2020,04,26,03,10,5.90
2020,04,26,03,11,5.90
2020,04,26,03,12,5.90
2020,04,26,03,13,5.80
2020,04,26,03,14,5.80
2020,04,26,03,15,5.80
2020,04,26,03,16,5.80
2020,04,26,03,17,5.80
2020,04,26,03,18,5.80
2020,04,26,03,19,5.80
2020,04,26,03,20,5.80
2020,04,26,03,21,5.80
2020,04,26,03,22,5.80
2020,04,26,03,23,5.80
2020,04,26,03,24,5.80
2020,04,26,03,25,5.90
2020,04,26,03,26,5.90
2020,04,26,03,27,6.00
2020,04,26,03,28,6.10
2020,04,26,03,29,6.10
2020,04,26,03,30,6.10
2020,04,26,03,31,6.10
2020,04,26,03,32,6.20
2020,04,26,03,33,6.20
2020,04,26,03,34,6.20
2020,04,26,03,35,6.20
2020,04,26,03,36,6.20
2020,04,26,03,37,6.20
2020,04,26,03,38,6.10
2020,04,26,03,39,6.10
2020,04,26,03,40,6.10
2020,04,26,03,41,6.20
2020,04,26,03,42,6.20
2020,04,26,03,43,6.40
2020,04,26,03,44,6.50
2020,04,26,03,45,6.60
2020,04,26,03,46,6.80
2020,04,26,03,47,6.90
2020,04,26,03,48,7.10
2020,04,26,03,49,7.20
2020,04,26,03,50,7.40
2020,04,26,03,51,7.50
2020,04,26,03,52,7.60
2020,04,26,03,53,7.70
2020,04,26,03,54,7.70
2020,04,26,03,55,7.70
2020,04,26,03,56,7.60
2020,04,26,03,57,7.60
2020,04,26,03,58,7.50
2020,04,26,03,59,7.40
2020,04,26,04,00,7.40
2020,04,26,04,01,7.30
2020,04,26,04,02,7.20
2020,04,26,04,03,7.20
2020,04,26,04,04,7.10
2020,04,26,04,05,7.10
2020,04,26,04,06,7.10
2020,04,26,04,07,7.10
2020,04,26,04,08,7.00
2020,04,26,04,09,7.00
2020,04,26,04,10,6.90
2020,04,26,04,11,6.90
2020,04,26,04,12,6.90
2020,04,26,04,13,6.80
2020,04,26,04,14,6.80
2020,04,26,04,15,6.80
2020,04,26,04,16,6.80
2020,04,26,04,17,6.80
2020,04,26,04,18,6.80
2020,04,26,04,19,6.80
2020,04,26,04,20,6.80
2020,04,26,04,21,6.80
2020,04,26,04,22,6.80
2020,04,26,04,23,6.90
2020,04,26,04,24,6.90
2020,04,26,04,25,6.90
2020,04,26,04,26,7.00
2020,04,26,04,27,7.00
2020,04,26,04,28,7.00
2020,04,26,04,29,7.00
2020,04,26,04,30,7.00
2020,04,26,04,31,7.00
2020,04,26,04,32,7.00
2020,04,26,04,33,7.10
2020,04,26,04,34,7.10
2020,04,26,04,35,7.10
2020,04,26,04,36,7.20
2020,04,26,04,37,7.20
2020,04,26,04,38,7.20
2020,04,26,04,39,7.20
2020,04,26,04,40,7.20
2020,04,26,04,41,7.10
2020,04,26,04,42,7.10
2020,04,26,04,43,7.10
2020,04,26,04,44,7.10
2020,04,26,04,45,7.10
2020,04,26,04,46,7.10
2020,04,26,04,47,7.10
2020,04,26,04,48,7.10
2020,04,26,04,49,7.00
2020,04,26,04,50,6.90
2020,04,26,04,51,6.90
2020,04,26,04,52,6.90
2020,04,26,04,53,6.90
2020,04,26,04,54,6.90
2020,04,26,04,55,6.90
2020,04,26,04,56,6.90
2020,04,26,04,57,6.90
2020,04,26,04,58,7.00
2020,04,26,04,59,7.00
2020,04,26,05,00,7.10
2020,04,26,05,01,7.10
2020,04,26,05,02,7.20
2020,04,26,05,03,7.20
2020,04,26,05,04,7.20
2020,04,26,05,05,7.20
2020,04,26,05,06,7.10
2020,04,26,05,07,7.10
2020,04,26,05,08,7.10
2020,04,26,05,09,7.10
2020,04,26,05,10,7.10
2020,04,26,05,11,7.10
2020,04,26,05,12,7.10
2020,04,26,05,13,7.20
2020,04,26,05,14,7.30
2020,04,26,05,15,7.30
2020,04,26,05,16,7.40
2020,04,26,05,17,7.40
2020,04,26,05,18,7.50
2020,04,26,05,19,7.50
2020,04,26,05,20,7.60
2020,04,26,05,21,7.60
2020,04,26,05,22,7.60
2020,04,26,05,23,7.70
2020,04,26,05,24,7.70
2020,04,26,05,25,7.80
2020,04,26,05,26,7.80
2020,04,26,05,27,7.90
2020,04,26,05,28,7.90
2020,04,26,05,29,8.00
2020,04,26,05,30,8.10
2020,04,26,05,31,8.20
2020,04,26,05,32,8.30
2020,04,26,05,33,8.40
2020,04,26,05,34,8.50
2020,04,26,05,35,8.50
2020,04,26,05,36,8.60
2020,04,26,05,37,8.70
2020,04,26,05,38,8.70
2020,04,26,05,39,8.70
2020,04,26,05,40,8.80
2020,04,26,05,41,8.80
2020,04,26,05,42,8.90
2020,04,26,05,43,8.90
2020,04,26,05,44,8.90
2020,04,26,05,45,8.90
2020,04,26,05,46,8.90
2020,04,26,05,47,8.90
2020,04,26,05,48,8.90
2020,04,26,05,49,8.90
2020,04,26,05,50,8.90
2020,04,26,05,51,9.00
2020,04,26,05,52,8.90
2020,04,26,05,53,8.90
2020,04,26,05,54,8.90
2020,04,26,05,55,8.90
2020,04,26,05,56,8.90
2020,04,26,05,57,8.90
2020,04,26,05,58,8.90
2020,04,26,05,59,8.90
2020,04,26,06,00,8.80
2020,04,26,06,01,8.80
2020,04,26,06,02,8.80
2020,04,26,06,03,8.80
2020,04,26,06,04,8.70
2020,04,26,06,05,8.70
2020,04,26,06,06,8.70
2020,04,26,06,07,8.70
2020,04,26,06,08,8.60
2020,04,26,06,09,8.50
2020,04,26,06,10,8.40
2020,04,26,06,11,8.40
2020,04,26,06,12,8.30
2020,04,26,06,13,8.20
2020,04,26,06,14,8.20
2020,04,26,06,15,8.20
2020,04,26,06,16,8.20
2020,04,26,06,17,8.10
2020,04,26,06,18,8.10
2020,04,26,06,19,8.10
2020,04,26,06,20,8.10
2020,04,26,06,21,8.10
2020,04,26,06,22,8.10
2020,04,26,06,23,8.10
2020,04,26,06,24,8.00
2020,04,26,06,25,8.00
2020,04,26,06,26,8.00
2020,04,26,06,27,8.00
2020,04,26,06,28,8.00
2020,04,26,06,29,8.00
2020,04,26,06,30,8.00
2020,04,26,06,31,8.00
2020,04,26,06,32,8.00
2020,04,26,06,33,8.00
2020,04,26,06,34,7.90
2020,04,26,06,35,7.90
2020,04,26,06,36,7.90
2020,04,26,06,37,7.90
2020,04,26,06,38,7.90
2020,04,26,06,39,7.90
2020,04,26,06,40,7.90
2020,04,26,06,41,7.90
2020,04,26,06,42,7.90
2020,04,26,06,43,7.90
2020,04,26,06,44,7.90
2020,04,26,06,45,7.90
2020,04,26,06,46,7.90
2020,04,26,06,47,7.90
2020,04,26,06,48,7.90
2020,04,26,06,49,7.90
2020,04,26,06,50,7.90
2020,04,26,06,51,8.00
2020,04,26,06,52,8.00
2020,04,26,06,53,8.00
2020,04,26,06,54,8.10
2020,04,26,06,55,8.10
2020,04,26,06,56,8.10
2020,04,26,06,57,8.20
2020,04,26,06,58,8.20
2020,04,26,06,59,8.20
2020,04,26,07,00,8.30
2020,04,26,07,01,8.30
2020,04,26,07,02,8.40
2020,04,26,07,03,8.50
2020,04,26,07,04,8.50
2020,04,26,07,05,8.50
2020,04,26,07,06,8.60
2020,04,26,07,07,8.60
2020,04,26,07,08,8.70
2020,04,26,07,09,8.80
2020,04,26,07,10,8.80
2020,04,26,07,11,8.90
2020,04,26,07,12,8.90
2020,04,26,07,13,9.00
2020,04,26,07,14,9.00
2020,04,26,07,15,9.10
2020,04,26,07,16,9.20
2020,04,26,07,17,9.30
2020,04,26,07,18,9.40
2020,04,26,07,19,9.50
2020,04,26,07,20,9.60
2020,04,26,07,21,9.60
2020,04,26,07,22,9.60
2020,04,26,07,23,9.70
2020,04,26,07,24,9.70
2020,04,26,07,25,9.70
2020,04,26,07,26,9.70
2020,04,26,07,27,9.70
2020,04,26,07,28,9.70
2020,04,26,07,29,9.70
2020,04,26,07,30,9.70
2020,04,26,07,31,9.70
2020,04,26,07,32,9.70
2020,04,26,07,33,9.70
2020,04,26,07,34,9.70
2020,04,26,07,35,9.70
2020,04,26,07,36,9.70
2020,04,26,07,37,9.70
2020,04,26,07,38,9.70
2020,04,26,07,39,9.70
2020,04,26,07,40,9.70
2020,04,26,07,41,9.70
2020,04,26,07,42,9.70
2020,04,26,07,43,9.70
2020,04,26,07,44,9.80
2020,04,26,07,45,9.80
2020,04,26,07,46,9.80
2020,04,26,07,47,9.80
2020,04,26,07,48,9.80
2020,04,26,07,49,9.80
2020,04,26,07,50,9.80
2020,04,26,07,51,9.80
2020,04,26,07,52,9.80
2020,04,26,07,53,9.80
2020,04,26,07,54,9.80
2020,04,26,07,55,9.80
2020,04,26,07,56,9.80
2020,04,26,07,57,9.80
2020,04,26,07,58,9.80
2020,04,26,07,59,9.90
2020,04,26,08,00,9.90
2020,04,26,08,01,9.90
2020,04,26,08,02,9.90
2020,04,26,08,03,9.90
2020,04,26,08,04,9.90
2020,04,26,08,05,9.90
2020,04,26,08,06,9.90
2020,04,26,08,07,9.90
2020,04,26,08,08,9.90
2020,04,26,08,09,10.00
2020,04,26,08,10,9.90
2020,04,26,08,11,9.90
2020,04,26,08,12,9.90
2020,04,26,08,13,9.90
2020,04,26,08,14,9.90
2020,04,26,08,15,9.90
2020,04,26,08,16,9.90
2020,04,26,08,17,9.90
2020,04,26,08,18,9.90
2020,04,26,08,19,9.90
2020,04,26,08,20,9.90
2020,04,26,08,21,9.90
2020,04,26,08,22,9.90
2020,04,26,08,23,9.90
2020,04,26,08,24,9.90
2020,04,26,08,25,9.90
2020,04,26,08,26,9.90
2020,04,26,08,27,9.90
2020,04,26,08,28,9.90
2020,04,26,08,29,9.90
2020,04,26,08,30,9.90
2020,04,26,08,31,9.90
2020,04,26,08,32,9.90
2020,04,26,08,33,9.80
2020,04,26,08,34,9.80
2020,04,26,08,35,9.80
2020,04,26,08,36,9.80
2020,04,26,08,37,9.80
2020,04,26,08,38,9.80
2020,04,26,08,39,9.80
2020,04,26,08,40,9.80
2020,04,26,08,41,9.80
2020,04,26,08,42,9.80
2020,04,26,08,43,9.80
2020,04,26,08,44,9.80
2020,04,26,08,45,9.80
2020,04,26,08,46,9.70
2020,04,26,08,47,9.70
2020,04,26,08,48,9.70
2020,04,26,08,49,9.70
2020,04,26,08,50,9.70
2020,04,26,08,51,9.70
2020,04,26,08,52,9.60
2020,04,26,08,53,9.60
2020,04,26,08,54,9.60
2020,04,26,08,55,9.50
2020,04,26,08,56,9.50
2020,04,26,08,57,9.50
2020,04,26,08,58,9.40
2020,04,26,08,59,9.40
2020,04,26,09,00,9.40
2020,04,26,09,01,9.40
2020,04,26,09,02,9.30
2020,04,26,09,03,9.30
2020,04,26,09,04,9.30
2020,04,26,09,05,9.30
2020,04,26,09,06,9.30
2020,04,26,09,07,9.30
2020,04,26,09,08,9.30
2020,04,26,09,09,9.30
2020,04,26,09,10,9.20
2020,04,26,09,11,9.20
2020,04,26,09,12,9.20
2020,04,26,09,13,9.20
2020,04,26,09,14,9.20
2020,04,26,09,15,9.20
2020,04,26,09,16,9.20
2020,04,26,09,17,9.20
2020,04,26,09,18,9.20
2020,04,26,09,19,9.20
2020,04,26,09,20,9.30
2020,04,26,09,21,9.30
2020,04,26,09,22,9.30
2020,04,26,09,23,9.30
2020,04,26,09,24,9.30
2020,04,26,09,25,9.30
2020,04,26,09,26,9.30
2020,04,26,09,27,9.30
2020,04,26,09,28,9.40
2020,04,26,09,29,9.40
2020,04,26,09,30,9.40
2020,04,26,09,31,9.50
2020,04,26,09,32,9.50
2020,04,26,09,33,9.50
2020,04,26,09,34,9.60
2020,04,26,09,35,9.60
2020,04,26,09,36,9.60
2020,04,26,09,37,9.70
2020,04,26,09,38,9.70
2020,04,26,09,39,9.70
2020,04,26,09,40,9.70
2020,04,26,09,41,9.80
2020,04,26,09,42,9.80
2020,04,26,09,43,9.80
2020,04,26,09,44,9.90
2020,04,26,09,45,9.90
2020,04,26,09,46,10.00
2020,04,26,09,47,10.10
2020,04,26,09,48,10.10
2020,04,26,09,49,10.20
2020,04,26,09,50,10.20
2020,04,26,09,51,10.20
2020,04,26,09,52,10.30
2020,04,26,09,53,10.30
2020,04,26,09,54,10.40
2020,04,26,09,55,10.50
2020,04,26,09,56,10.60
2020,04,26,09,57,10.60
2020,04,26,09,58,10.80
2020,04,26,09,59,10.80
2020,04,26,10,00,10.90
2020,04,26,10,01,10.90
2020,04,26,10,02,11.00
2020,04,26,10,03,11.00
2020,04,26,10,04,11.10
2020,04,26,10,05,11.20
2020,04,26,10,06,11.30
2020,04,26,10,07,11.30
2020,04,26,10,08,11.40
2020,04,26,10,09,11.40
2020,04,26,10,10,11.40
2020,04,26,10,11,11.50
2020,04,26,10,12,11.50
2020,04,26,10,13,11.60
2020,04,26,10,14,11.70
2020,04,26,10,15,11.70
2020,04,26,10,16,11.80
2020,04,26,10,17,11.80
2020,04,26,10,18,11.80
2020,04,26,10,19,11.90
2020,04,26,10,20,11.90
2020,04,26,10,21,12.00
2020,04,26,10,22,12.10
2020,04,26,10,23,12.20
2020,04,26,10,24,12.20
2020,04,26,10,25,12.30
2020,04,26,10,26,12.30
2020,04,26,10,27,12.30
2020,04,26,10,28,12.30
2020,04,26,10,29,12.30
2020,04,26,10,30,12.40
2020,04,26,10,31,12.40
2020,04,26,10,32,12.50
2020,04,26,10,33,12.50
2020,04,26,10,34,12.50
2020,04,26,10,35,12.60
2020,04,26,10,36,12.60
2020,04,26,10,37,12.60
2020,04,26,10,38,12.60
2020,04,26,10,39,12.60
2020,04,26,10,40,12.60
2020,04,26,10,41,12.60
2020,04,26,10,42,12.60
2020,04,26,10,43,12.60
2020,04,26,10,44,12.70
2020,04,26,10,45,12.70
2020,04,26,10,46,12.70
2020,04,26,10,47,12.70
2020,04,26,10,48,12.70
2020,04,26,10,49,12.70
2020,04,26,10,50,12.70
2020,04,26,10,51,12.80
2020,04,26,10,52,12.80
2020,04,26,10,53,12.80
2020,04,26,10,54,12.80
2020,04,26,10,55,12.80
2020,04,26,10,56,12.90
2020,04,26,10,57,12.90
2020,04,26,10,58,12.90
2020,04,26,10,59,12.80
2020,04,26,11,00,12.80
2020,04,26,11,01,12.80
2020,04,26,11,02,12.90
2020,04,26,11,03,12.90
2020,04,26,11,04,12.90
2020,04,26,11,05,12.90
2020,04,26,11,06,12.90
2020,04,26,11,07,13.00
2020,04,26,11,08,13.00
2020,04,26,11,09,13.00
2020,04,26,11,10,13.00
2020,04,26,11,11,13.00
2020,04,26,11,12,13.00
2020,04,26,11,13,13.00
2020,04,26,11,14,13.00
2020,04,26,11,15,13.00
2020,04,26,11,16,13.00
2020,04,26,11,17,13.10
2020,04,26,11,18,13.10
2020,04,26,11,19,13.10
2020,04,26,11,20,13.10
2020,04,26,11,21,13.10
2020,04,26,11,22,13.10
2020,04,26,11,23,13.10
2020,04,26,11,24,13.10
2020,04,26,11,25,13.10
2020,04,26,11,26,13.10
2020,04,26,11,27,13.10
2020,04,26,11,28,13.10
2020,04,26,11,29,13.10
2020,04,26,11,30,13.10
2020,04,26,11,31,13.10
2020,04,26,11,32,13.20
2020,04,26,11,33,13.20
2020,04,26,11,34,13.30
2020,04,26,11,35,13.40
2020,04,26,11,36,13.40
2020,04,26,11,37,13.40
2020,04,26,11,38,13.50
2020,04,26,11,39,13.50
2020,04,26,11,40,13.50
2020,04,26,11,41,13.50
2020,04,26,11,42,13.50
2020,04,26,11,43,13.50
2020,04,26,11,44,13.60
2020,04,26,11,45,13.60
2020,04,26,11,46,13.60
2020,04,26,11,47,13.70
2020,04,26,11,48,13.70
2020,04,26,11,49,13.80
2020,04,26,11,50,13.80
2020,04,26,11,51,13.90
2020,04,26,11,52,13.90
2020,04,26,11,53,14.00
2020,04,26,11,54,14.00
2020,04,26,11,55,14.10
2020,04,26,11,56,14.10
2020,04,26,11,57,14.20
2020,04,26,11,58,14.20
2020,04,26,11,59,14.20
2020,04,26,12,00,14.20
2020,04,26,12,01,14.20
2020,04,26,12,02,14.20
2020,04,26,12,03,14.10
2020,04,26,12,04,14.10
2020,04,26,12,05,14.10
2020,04,26,12,06,14.10
2020,04,26,12,07,14.00
2020,04,26,12,08,13.90
2020,04,26,12,09,13.90
2020,04,26,12,10,13.80
2020,04,26,12,11,13.70
2020,04,26,12,12,13.70
2020,04,26,12,13,13.70
2020,04,26,12,14,13.70
2020,04,26,12,15,13.70
2020,04,26,12,16,13.70
2020,04,26,12,17,13.60
2020,04,26,12,18,13.60
2020,04,26,12,19,13.60
2020,04,26,12,20,13.50
2020,04,26,12,21,13.50
2020,04,26,12,22,13.50
2020,04,26,12,23,13.50
2020,04,26,12,24,13.50
2020,04,26,12,25,13.60
2020,04,26,12,26,13.60
2020,04,26,12,27,13.60
2020,04,26,12,28,13.60
2020,04,26,12,29,13.60
2020,04,26,12,30,13.60
2020,04,26,12,31,13.60
2020,04,26,12,32,13.60
2020,04,26,12,33,13.60
2020,04,26,12,34,13.50
2020,04,26,12,35,13.40
2020,04,26,12,36,13.40
2020,04,26,12,37,13.40
2020,04,26,12,38,13.40
2020,04,26,12,39,13.40
2020,04,26,12,40,13.40
2020,04,26,12,41,13.40
2020,04,26,12,42,13.40
2020,04,26,12,43,13.50
2020,04,26,12,44,13.50
2020,04,26,12,45,13.60
2020,04,26,12,46,13.70
2020,04,26,12,47,13.80
2020,04,26,12,48,13.90
2020,04,26,12,49,14.00
2020,04,26,12,50,14.10
2020,04,26,12,51,14.20
2020,04,26,12,52,14.20
2020,04,26,12,53,14.30
2020,04,26,12,54,14.30
2020,04,26,12,55,14.30
2020,04,26,12,56,14.20
2020,04,26,12,57,14.20
2020,04,26,12,58,14.10
2020,04,26,12,59,14.10
2020,04,26,13,00,14.10
2020,04,26,13,01,14.00
2020,04,26,13,02,14.00
2020,04,26,13,03,14.00
2020,04,26,13,04,14.00
2020,04,26,13,05,14.10
2020,04,26,13,06,14.10
2020,04,26,13,07,14.10
2020,04,26,13,08,14.00
2020,04,26,13,09,14.00
2020,04,26,13,10,13.90
2020,04,26,13,11,14.00
2020,04,26,13,12,14.00
2020,04,26,13,13,14.00
2020,04,26,13,14,14.00
2020,04,26,13,15,14.00
2020,04,26,13,16,14.00
2020,04,26,13,17,14.00
2020,04,26,13,18,14.00
2020,04,26,13,19,14.00
2020,04,26,13,20,14.00
2020,04,26,13,21,14.00
2020,04,26,13,22,14.00
2020,04,26,13,23,13.90
2020,04,26,13,24,13.90
2020,04,26,13,25,13.90
2020,04,26,13,26,13.80
2020,04,26,13,27,13.80
2020,04,26,13,28,13.70
2020,04,26,13,29,13.60
2020,04,26,13,30,13.50
2020,04,26,13,31,13.50
2020,04,26,13,32,13.50
2020,04,26,13,33,13.50
2020,04,26,13,34,13.50
2020,04,26,13,35,13.50
2020,04,26,13,36,13.50
2020,04,26,13,37,13.50
2020,04,26,13,38,13.50
2020,04,26,13,39,13.50
2020,04,26,13,40,13.50
2020,04,26,13,41,13.50
2020,04,26,13,42,13.50
2020,04,26,13,43,13.60
2020,04,26,13,44,13.70
2020,04,26,13,45,13.70
2020,04,26,13,46,13.70
2020,04,26,13,47,13.70
2020,04,26,13,48,13.80
2020,04,26,13,49,13.80
2020,04,26,13,50,13.80
2020,04,26,13,51,13.80
2020,04,26,13,52,13.80
2020,04,26,13,53,13.70
2020,04,26,13,54,13.70
2020,04,26,13,55,13.70
2020,04,26,13,56,13.70
2020,04,26,13,57,13.70
2020,04,26,13,58,13.60
2020,04,26,13,59,13.60
2020,04,26,14,00,13.60
2020,04,26,14,01,13.60
2020,04,26,14,02,13.60
2020,04,26,14,03,13.60
2020,04,26,14,04,13.60
2020,04,26,14,05,13.60
2020,04,26,14,06,13.50
2020,04,26,14,07,13.60
2020,04,26,14,08,13.50
2020,04,26,14,09,13.60
2020,04,26,14,10,13.50
2020,04,26,14,11,13.50
2020,04,26,14,12,13.40
2020,04,26,14,13,13.40
2020,04,26,14,14,13.40
2020,04,26,14,15,13.40
2020,04,26,14,16,13.40
2020,04,26,14,17,13.40
2020,04,26,14,18,13.40
2020,04,26,14,19,13.40
2020,04,26,14,20,13.30
2020,04,26,14,21,13.30
2020,04,26,14,22,13.20
2020,04,26,14,23,13.20
2020,04,26,14,24,13.10
2020,04,26,14,25,13.10
2020,04,26,14,26,13.10
2020,04,26,14,27,13.10
2020,04,26,14,28,13.00
2020,04,26,14,29,13.00
2020,04,26,14,30,12.90
2020,04,26,14,31,12.90
2020,04,26,14,32,13.00
2020,04,26,14,33,13.00
2020,04,26,14,34,13.10
2020,04,26,14,35,13.10
2020,04,26,14,36,13.10
2020,04,26,14,37,13.10
2020,04,26,14,38,13.10
2020,04,26,14,39,13.10
2020,04,26,14,40,13.10
2020,04,26,14,41,13.10
2020,04,26,14,42,13.10
2020,04,26,14,43,13.10
2020,04,26,14,44,13.10
2020,04,26,14,45,13.10
2020,04,26,14,46,13.10
2020,04,26,14,47,13.10
2020,04,26,14,48,13.00
2020,04,26,14,49,13.00
2020,04,26,14,50,12.90
2020,04,26,14,51,12.90
2020,04,26,14,52,12.90
2020,04,26,14,53,12.80
2020,04,26,14,54,12.80
2020,04,26,14,55,12.80
2020,04,26,14,56,12.80
2020,04,26,14,57,12.80
2020,04,26,14,58,12.80
2020,04,26,14,59,12.80
2020,04,26,15,00,12.80
2020,04,26,15,01,12.80
2020,04,26,15,02,12.80
2020,04,26,15,03,12.80
2020,04,26,15,04,12.80
2020,04,26,15,05,12.80
2020,04,26,15,06,12.80
2020,04,26,15,07,12.90
2020,04,26,15,08,12.90
2020,04,26,15,09,12.90
2020,04,26,15,10,12.90
2020,04,26,15,11,12.90
2020,04,26,15,12,13.00
2020,04,26,15,13,13.10
2020,04,26,15,14,13.10
2020,04,26,15,15,13.20
2020,04,26,15,16,13.30
2020,04,26,15,17,13.40
2020,04,26,15,18,13.50
2020,04,26,15,19,13.60
2020,04,26,15,20,13.70
2020,04,26,15,21,13.70
2020,04,26,15,22,13.70
2020,04,26,15,23,13.70
2020,04,26,15,24,13.70
2020,04,26,15,25,13.70
2020,04,26,15,26,13.70
2020,04,26,15,27,13.60
2020,04,26,15,28,13.60
2020,04,26,15,29,13.50
2020,04,26,15,30,13.50
2020,04,26,15,31,13.40
2020,04,26,15,32,13.40
2020,04,26,15,33,13.30
2020,04,26,15,34,13.30
2020,04,26,15,35,13.30
2020,04,26,15,36,13.30
2020,04,26,15,37,13.20
2020,04,26,15,38,13.20
2020,04,26,15,39,13.20
2020,04,26,15,40,13.30
2020,04,26,15,41,13.30
2020,04,26,15,42,13.40
2020,04,26,15,43,13.40
2020,04,26,15,44,13.50
2020,04,26,15,45,13.60
2020,04,26,15,46,13.70
2020,04,26,15,47,13.80
2020,04,26,15,48,13.90
2020,04,26,15,49,13.90
2020,04,26,15,50,14.00
2020,04,26,15,51,14.10
2020,04,26,15,52,14.20
2020,04,26,15,53,14.30
2020,04,26,15,54,14.40
2020,04,26,15,55,14.50
2020,04,26,15,56,14.50
2020,04,26,15,57,14.60
2020,04,26,15,58,14.60
2020,04,26,15,59,14.60
2020,04,26,16,00,14.60
2020,04,26,16,01,14.60
2020,04,26,16,02,14.70
2020,04,26,16,03,14.70
2020,04,26,16,04,14.70
2020,04,26,16,05,14.70
2020,04,26,16,06,14.80
2020,04,26,16,07,14.90
2020,04,26,16,08,15.00
2020,04,26,16,09,15.10
2020,04,26,16,10,15.10
2020,04,26,16,11,15.20
2020,04,26,16,12,15.20
2020,04,26,16,13,15.30
2020,04,26,16,14,15.30
2020,04,26,16,15,15.30
2020,04,26,16,16,15.30
2020,04,26,16,17,15.30
2020,04,26,16,18,15.30
2020,04,26,16,19,15.30
2020,04,26,16,20,15.30
2020,04,26,16,21,15.10
2020,04,26,16,22,15.00
2020,04,26,16,23,14.90
2020,04,26,16,24,14.70
2020,04,26,16,25,14.60
2020,04,26,16,26,14.60
2020,04,26,16,27,14.50
2020,04,26,16,28,14.40
2020,04,26,16,29,14.40
2020,04,26,16,30,14.30
2020,04,26,16,31,14.30
2020,04,26,16,32,14.20
2020,04,26,16,33,14.20
2020,04,26,16,34,14.10
2020,04,26,16,35,14.10
2020,04,26,16,36,14.00
2020,04,26,16,37,14.00
2020,04,26,16,38,14.00
2020,04,26,16,39,14.00
2020,04,26,16,40,14.00
2020,04,26,16,41,13.90
2020,04,26,16,42,13.90
2020,04,26,16,43,13.90
2020,04,26,16,44,13.80
2020,04,26,16,45,13.80
2020,04,26,16,46,13.80
2020,04,26,16,47,13.70
2020,04,26,16,48,13.70
2020,04,26,16,49,13.70
2020,04,26,16,50,13.70
2020,04,26,16,51,13.70
2020,04,26,16,52,13.70
2020,04,26,16,53,13.60
2020,04,26,16,54,13.60
2020,04,26,16,55,13.60
2020,04,26,16,56,13.60
2020,04,26,16,57,13.60
2020,04,26,16,58,13.60
2020,04,26,16,59,13.50
2020,04,26,17,00,13.50
2020,04,26,17,01,13.50
2020,04,26,17,02,13.50
2020,04,26,17,03,13.50
2020,04,26,17,04,13.50
2020,04,26,17,05,13.50
2020,04,26,17,06,13.60
2020,04,26,17,07,13.60
2020,04,26,17,08,13.60
2020,04,26,17,09,13.60
2020,04,26,17,10,13.60
2020,04,26,17,11,13.60
2020,04,26,17,12,13.70
2020,04,26,17,13,13.70
2020,04,26,17,14,13.60
2020,04,26,17,15,13.60
2020,04,26,17,16,13.60
2020,04,26,17,17,13.50
2020,04,26,17,18,13.50
2020,04,26,17,19,13.50
2020,04,26,17,20,13.50
2020,04,26,17,21,13.50
2020,04,26,17,22,13.40
2020,04,26,17,23,13.40
2020,04,26,17,24,13.40
2020,04,26,17,25,13.50
2020,04,26,17,26,13.50
2020,04,26,17,27,13.50
2020,04,26,17,28,13.50
2020,04,26,17,29,13.50
2020,04,26,17,30,13.50
2020,04,26,17,31,13.50
2020,04,26,17,32,13.50
2020,04,26,17,33,13.50
2020,04,26,17,34,13.40
2020,04,26,17,35,13.40
2020,04,26,17,36,13.50
2020,04,26,17,37,13.50
2020,04,26,17,38,13.50
2020,04,26,17,39,13.50
2020,04,26,17,40,13.60
2020,04,26,17,41,13.50
2020,04,26,17,42,13.60
2020,04,26,17,43,13.50
2020,04,26,17,44,13.50